Location: Bartshausen
(51.8454°N, 9.8167°E)
Time: 02:51:17
(UTC+00:00)

NOSS 3-1 (C) - Pass Details

Date: 08 November 2025
Orbit: 619 x 1583 km, 63.4° (Epoch: 01 December)

Event Time Altitude Azimuth Distance (km) Brightness Sun altitude
Exits shadow 04:27:29 23° 224° (SW) 1,501 4.1 -18.7°
Maximum altitude 04:30:37 90° 298° (WNW) 779 3.0 -18.2°
Drops below altitude 10° 04:36:34 10° 46° (NE) 2,620 6.3 -17.3°
Sets 04:39:25 0° 46° (NE) 3,723 7.2 -16.8°
